Location: Newark
(9.9210°N, 0.2190°W)
Time: 11:37:43
(UTC+00:00)

LightSail 2 - Visible Passes

Search period start: 14 November 2019 00:00
Search period end: 24 November 2019 00:00
Orbit: 701 x 726 km, 24.0° (Epoch: 13 November)

Date Brightness Start Highest point End Pass type
(mag) Time Alt. Az. Time Alt. Az. Time Alt. Az.
14 Nov 7.2 04:08:03 16° NNE 04:08:03 16° NNE 04:10:14 10° NE visible
15 Nov 7.1 04:52:47 13° NNW 04:55:16 17° N 04:58:40 10° NE visible
16 Nov 7.3 03:58:31 15° NNE 03:58:31 15° NNE 04:00:18 10° NE visible
17 Nov 6.9 04:43:12 16° NNW 04:45:19 21° N 04:49:11 10° ENE visible
18 Nov 7.4 03:48:54 16° NNE 03:48:54 16° NNE 03:50:41 10° NE visible
18 Nov 6.3 05:28:36 10° NW 05:33:19 34° NNE 05:38:03 10° E visible
18 Nov 7.4 19:41:50 10° SSW 19:43:29 15° S 19:43:29 15° S visible
19 Nov 6.5 04:33:35 23° NNW 04:35:15 27° NNE 04:39:39 10° ENE visible
19 Nov 7.3 18:45:10 10° S 18:47:22 13° SSE 18:49:12 11° SE visible
19 Nov 8.1 20:27:59 10° SW 20:28:10 11° SW 20:28:10 11° SW visible
20 Nov 7.4 03:39:17 17° NE 03:39:17 17° NE 03:41:10 10° ENE visible
20 Nov 5.6 05:18:16 11° NW 05:23:03 54° NNE 05:28:09 10° E visible
20 Nov 6.4 19:30:24 10° SW 19:33:53 30° S 19:33:53 30° S visible
21 Nov 5.9 04:23:58 36° N 04:25:01 40° NNE 04:29:53 10° E visible
21 Nov 6.7 18:33:00 10° SSW 18:37:00 23° SSE 18:39:35 16° ESE visible
21 Nov 7.7 20:17:21 10° WSW 20:18:34 17° WSW 20:18:34 17° WSW visible
22 Nov 7.4 03:29:40 19° ENE 03:29:40 19° ENE 03:31:30 10° ENE visible
22 Nov 5.1 05:08:39 17° WNW 05:12:40 89° SSW 05:17:52 10° ESE visible
22 Nov 5.3 19:19:28 10° SW 19:24:17 60° SSE 19:24:17 60° SSE visible
23 Nov 5.2 04:14:21 64° N 04:14:39 66° NNE 04:19:48 10° ESE visible
23 Nov 5.9 18:21:43 10° SW 18:26:32 41° SSE 18:29:58 18° E visible
23 Nov 7.3 20:07:03 10° W 20:08:57 22° W 20:08:57 22° W visible
